Regional Weather Roundup
Issued by NWS

Home | Current Version | Previous Version | Text Only | Print | Product List | Glossary Off
Versions: 1 2 3 4 5 6 7 8 9 10 11 12 13 14 15 16 17 18 19 20 21 22 23 24 25 26 27 28 29 30 31 32 33 34 35 36 37 38 39 40 41 42 43 44 45 46 47 48 49 50

000
ASUS43 KMPX 280801
RWRMN
WEATHER ROUNDUP FOR MINNESOTA
NATIONAL WEATHER SERVICE TWIN CITIES/CHANHASSEN MN
300 AM CDT FRI APR 28 2017


NOTE: "FAIR" INDICATES FEW OR NO CLOUDS BELOW 12,000 FEET WITH NO
SIGNIFICANT WEATHER AND/OR OBSTRUCTIONS TO VISIBILITY. N/A MEANS
CURRENT SKY AND/OR WEATHER CONDITIONS ARE NOT AVAILABLE.

MNZ060>063-068>070-280900-
   Twin Cities Metro

CITY           SKY/WX    TMP DP  RH WIND       PRES   REMARKS
TWIN CITIES    CLOUDY    36  27  69 W8        29.82R
ST PAUL        CLOUDY    36  28  73 W5        29.83R
LAKEVILLE      CLOUDY    34  28  80 SW6       29.82R WCI  29
EDEN PRAIRIE   CLOUDY    35  27  72 W7        29.82R WCI  29
SOUTH ST PAUL  CLOUDY    35  28  76 W7        29.82R WCI  29
LAKE ELMO      CLOUDY    34  28  80 W8        29.81S WCI  27
$$
MNZ001>005-007-008-013>017-022>024-027-028-280900-
   Northwest Minnesota

CITY           SKY/WX    TMP DP  RH WIND       PRES   REMARKS
BEMIDJI        CLOUDY    28  24  86 NW13      29.75S WCI  17
HALLOCK        PTCLDY    32  28  86 NW6       29.85R WCI  26
ROSEAU         CLOUDY    30  27  86 N12       29.80R WCI  21
WARROAD        CLOUDY    28  25  86 NW12      29.79S WCI  18
THIEF RVR FALL CLOUDY    30  27  88 NW8       29.82R WCI  22
CROOKSTON      CLOUDY    32  30  93 NW10      29.85R WCI  24
FOSSTON        CLOUDY    27  25  93 NW8       29.81R WCI  18
DETROIT LAKES  CLEAR     30  28  93 NW9       29.81R WCI  22
MOORHEAD       CLEAR     30  27  86 NW9       29.86R WCI  22
PARK RAPIDS    CLOUDY    28  20  71 NW9       29.77R WCI  19
MAHNOMEN       CLOUDY    28  25  87 NW3       29.81R
$$
MNZ006-009>011-018-025>026-280900-
   North Central Minnesota

CITY           SKY/WX    TMP DP  RH WIND       PRES   REMARKS
BAUDETTE       LGT SNOW  29  25  85 N10       29.73S FOG     WCI  20
FLAG ISLAND    MIX PCPN  30  27  86 NW20G25   29.76R WCI  18
INTL FALLS     LGT SNOW  27  22  81 NW12      29.68R WCI  17
WASKISH        CLOUDY    28  25  86 N9        29.75R WCI  20
BIG FORK       CLOUDY    28  23  80 NW3       29.71R
LONGVILLE      CLOUDY    28  25  86 W8        29.74R WCI  20
GRAND RAPIDS   FLURRIES  27  23  85 NW12G20   29.73R WCI  17
CRANE LAKE     CLOUDY    25  23  93 CALM      29.67S
ORR            CLOUDY    27  21  80 W10G18    29.64S WCI  17
COOK           CLOUDY    27  25  93 W9        29.67S WCI  17
WALKER         CLOUDY    27  22  83 W7        29.75R WCI  19
$$
MNZ012-019>021-037-280900-
   Northeast Minnesota

CITY           SKY/WX    TMP DP  RH WIND       PRES   REMARKS
DULUTH         CLOUDY    28  23  81 W12       29.67S WCI  18
ELY            CLOUDY    25  21  86 W9        29.63S WCI  15
HIBBING        CLOUDY    26  22  84 W7        29.68S WCI  18
EVELETH        CLOUDY    28  22  81 W12       29.68S WCI  17
DULUTH HARBOR  CLOUDY    34  27  75 W14       29.73R WCI  24
TWO HARBORS    CLOUDY    30  25  80 W9        29.66R WCI  22
SILVER BAY     CLOUDY    28  25  86 W6        29.64S WCI  22
GRAND MARAIS     N/A     29  24  82 W8        29.64R WCI  21
G MARAIS ARPRT CLOUDY    21  18  86 CALM      29.56S
$$
MNZ029>031-032-039>041-046>048-054>057-064-280900-
   West Central Minnesota

CITY           SKY/WX    TMP DP  RH WIND       PRES   REMARKS
FERGUS FALLS   CLEAR     30  30 100 NW12      29.84R WCI  21
WHEATON        CLEAR     32  28  86 NW8       29.89R WCI  25
MORRIS         CLEAR     30  28  93 W7        29.84R WCI  23
ALEXANDRIA     CLOUDY    35  27  72 N12       29.80R WCI  27
ELBOW LAKE     FAIR      33  30  88 W13       29.83R WCI  24
WADENA         CLEAR     28  25  86 NW6       29.79R WCI  22
GLENWOOD       CLEAR     32  28  86 W10       29.81R WCI  24
APPLETON       CLEAR     32  28  86 W8        29.86R WCI  25
BENSON         CLEAR     34  28  80 W9        29.86R WCI  26
ORTONVILLE     CLEAR     34  28  80 W7        29.85F WCI  28
MADISON        MOCLDY    36  30  80 NW7       29.85F
WILLMAR        FAIR      34  30  86 W9        29.85R WCI  26
$$
MNZ033>034-036-042>043-049>051-058-059-280900-
   Central Minnesota

CITY           SKY/WX    TMP DP  RH WIND       PRES   REMARKS
ST CLOUD       CLOUDY    34  27  75 W12       29.80R WCI  25
SAUK CENTRE    CLOUDY    33  29  86 N6        29.80R WCI  28
PAYNESVILLE    MOCLDY    33  30  88 W10       29.81R WCI  25
AITKIN         MIX PCPN  30  27  86 W5        29.73R WCI  25
PINE RIVER     CLOUDY    28  21  74 W9        29.80R WCI  20
BRAINERD       CLOUDY    29  22  75 NW12      29.77R WCI  19
STAPLES        CLEAR     27  23  86 NW7       29.78S WCI  19
LONG PRAIRIE   CLOUDY    32  27  80 W7        29.80R WCI  26
LITTLE FALLS   CLOUDY    32  25  74 NW7G16    29.79R WCI  26
LITCHFIELD     CLOUDY    36  30  80 W6        29.82R
BUFFALO        CLOUDY    35  28  77 SW5       29.82R WCI  31
MAPLE LAKE     CLOUDY    36  31  82 SW5       29.82R
HUTCHINSON     CLOUDY    36  31  83 SW6       29.83R
$$
MNZ037-044-045-052-053-280900-
   East Central Minnesota

CITY           SKY/WX    TMP DP  RH WIND       PRES   REMARKS
PRINCETON      CLOUDY    36  28  75 W6        29.79S
MORA           CLOUDY    32  27  80 W8        29.78S WCI  25
CAMBRIDGE      CLOUDY    36  25  64 W6        29.77S
RUSH CITY      CLOUDY    31  26  81 W7        29.78R WCI  24
MOOSE LAKE     CLOUDY    30  27  86 W6        29.72S WCI  24
HINCKLEY       CLOUDY    32  28  86 W6        29.76R WCI  26
CLOQUET        CLOUDY    28  21  74 W9        29.70R WCI  20
MCGREGOR       CLOUDY    30  27  86 W7        29.74R WCI  23
$$
MNZ071>073-080-081-089-090-097-098-280900-
   Southwest Minnesota

CITY           SKY/WX    TMP DP  RH WIND       PRES   REMARKS
MONTEVIDEO     CLEAR     34  28  80 NW5       29.85R WCI  30
GRANITE FALLS  MOCLDY    35  31  86 W7        29.86S WCI  29
CANBY          CLEAR     33  30  89 CALM      29.86S
MARSHALL       CLEAR     31  27  85 SW5       29.84F WCI  26
REDWOOD FALLS  CLOUDY    36  28  73 SW8       29.84R
OLIVIA         CLOUDY    34  32  93 W8        29.84R WCI  27
PIPESTONE      CLEAR     30  25  80 CALM      29.83R
WINDOM         CLEAR     27  25  93 CALM      29.85S
WORTHINGTON    CLEAR     27  26  96 S7        29.85S WCI  19
JACKSON        PTCLDY    28  27  93 CALM      29.85S
TRACY          CLEAR     31  29  90 SW6       29.84F WCI  26
SLAYTON        CLEAR     27  26  95 CALM      29.84S
$$
MNZ065>067-074>077-082>085-091>093-280900-
   South Central Minnesota

CITY           SKY/WX    TMP DP  RH WIND       PRES   REMARKS
MANKATO        CLOUDY    33  28  81 SW6       29.84S WCI  28
NEW ULM        CLOUDY    34  28  80 W3        29.84S
ST JAMES       CLEAR     30  28  93 SW3       29.86S
FAIRMONT       CLEAR     29  27  92 CALM      29.85F
GLENCOE        CLOUDY    36  32  87 SW5       29.82R
FARIBAULT      CLOUDY    34  28  80 SW6       29.84R WCI  29
OWATONNA       CLEAR     32  27  80 SW8       29.84S WCI  25
WASECA         CLEAR     32  30  93 SW3       29.86S
ALBERT LEA     CLEAR     30  27  86 SW3       29.85S
$$
MNZ078>079-086>088-094>096-280900-
   Southeast Minnesota

CITY           SKY/WX    TMP DP  RH WIND       PRES   REMARKS
ROCHESTER      CLEAR     30  27  88 SW9       29.83R WCI  22
RED WING       MOCLDY    34  27  75 W5        29.82R WCI  30
STANTON        CLOUDY    36  28  75 SW6       29.82R
DODGE CENTER   PTCLDY    30  27  86 SW8       29.83S WCI  23
WINONA         CLEAR     36  28  75 W5        29.85R
AUSTIN         CLEAR     28  25  86 SW5       29.85S WCI  23
PRESTON        CLEAR     29  25  83 W8        29.85S WCI  21
$$
ABBREVIATIONS USED IN REMARKS
   TC - TEMPERATURES IN CELSIUS
  WCI - WIND CHILL INDEX
   HX - HEAT INDEX
  VSB - VISIBILITY
$$




USA.gov is the U.S. government's official web portal to all federal, state and local government web resources and services.